Weather in Verkhnyaya Mara

Russia / Karachay-Cherkess Republic     43°46′15″N   42°08′20″E
temp.,
°C
wind,
m/s
gust,
m/s
humid.,
%
clouds,
%
prec.,
mm/h
press.,
hPa
HPBL,
m
18 may, tue
tue1800:00+8ssw1297100 1.1 101199
03:00+6sw1196100 1.3 101193
06:00+7wsw129459 0.3 1012171
09:00+11w236820 0.4 10101027
12:00+13nnw346542 1.1 10101106
15:00+13nnw346741 5.0 1011879
18:00+11nnw22775 1.7 1011293
21:00+7sse22870 1.7 101319
19 may, wed
wed1900:00+6sse33680 0.0 101224
03:00+7se3358100 0.0 101027
06:00+7s458470 0.6 1011114
09:00+13wsw486547 0.7 10091167
12:00+13wsw686350 1.1 10111512
15:00+13wsw614573 2.3 10122406
18:00+11w36590 0.0 1014814
21:00+4se21830 0.1 101710
20 may, thu
thu2000:00+3sse22750 0.0 101816
03:00+2sse324792 0.0 101821
06:00+5se22496 0.0 101721
09:00+13w11335 0.0 1015599
12:00+16nnw23370 0.0 10131008
15:00+17nnw335276 0.0 10131071
18:00+14n21735 0.0 1014258
21:00+9s22836 0.0 101616
21 may, fri
fri2100:00+9sse43438 0.0 101627
03:00+10sse33315 0.0 101520
06:00+12se22500 0.0 101516
09:00+20ese12380 0.0 1012558
12:00+23ne163099 0.0 10103306
15:00+22n454743 0.0 10101379
18:00+20nne11654 0.0 101174
21:00+14se33600 0.0 101319
22 may, sat
sat2200:00+14se3337100 0.0 101220
03:00+15se4331100 0.0 101230
06:00+15se334697 0.0 101122
09:00+23se253699 0.0 1008528
12:00+24ne453798 0.0 10081695
15:00+19n3273100 0.8 1010628
18:00+16nnw1186100 1.7 1011328
21:00+12s3493100 3.5 1013146